�������l�o���
Date,Time,MP-1(��Sv/h),MP-2(��Sv/h),MP-3(��Sv/h),MP-4(��Sv/h),MP-5(��Sv/h),MP-6(��Sv/h),MP-7(��Sv/h),MP-8(��Sv/h),����,����(m/s),���J
2024/05/04,00:00,0.518,0.790,0.494,0.985,0.713,0.318,0.557,0.523,���k��,5.1,��
2024/05/04,00:10,0.517,0.790,0.494,0.984,0.714,0.319,0.557,0.521,�k��,5.2,��
2024/05/04,00:20,0.519,0.789,0.493,0.984,0.712,0.319,0.558,0.522,�k��,5.5,��
2024/05/04,00:30,0.519,0.790,0.493,0.981,0.712,0.318,0.559,0.521,���k��,4.7,��
2024/05/04,00:40,0.517,0.788,0.494,0.983,0.712,0.318,0.558,0.522,�k��,3.6,��
2024/05/04,00:50,0.518,0.788,0.493,0.984,0.714,0.318,0.559,0.522,�k��,4.3,��
2024/05/04,01:00,0.518,0.789,0.494,0.983,0.713,0.319,0.556,0.520,�k��,4.1,��
2024/05/04,01:10,0.518,0.789,0.493,0.984,0.712,0.318,0.557,0.521,�k��,3.5,��
2024/05/04,01:20,0.519,0.789,0.493,0.982,0.712,0.319,0.557,0.521,�k�k��,2.9,��
2024/05/04,01:30,0.518,0.787,0.494,0.983,0.712,0.318,0.559,0.521,�k,2.2,��
2024/05/04,01:40,0.518,0.788,0.491,0.984,0.711,0.318,0.559,0.521,�k�k��,2.3,��
2024/05/04,01:50,0.518,0.787,0.493,0.982,0.712,0.319,0.558,0.521,�k��,2.0,��
2024/05/04,02:00,0.518,0.788,0.490,0.983,0.711,0.318,0.556,0.521,�k�k��,2.6,��
2024/05/04,02:10,0.517,0.788,0.491,0.984,0.711,0.318,0.556,0.521,�k�k��,3.1,��
2024/05/04,02:20,0.519,0.790,0.493,0.984,0.711,0.318,0.559,0.521,�k�k��,2.8,��
2024/05/04,02:30,0.519,0.788,0.493,0.983,0.713,0.317,0.558,0.521,�k,3.5,��
2024/05/04,02:40,0.518,0.790,0.491,0.986,0.712,0.316,0.556,0.523,�k�k��,2.9,��
2024/05/04,02:50,0.519,0.787,0.492,0.983,0.710,0.318,0.558,0.521,�k�k��,2.6,��
2024/05/04,03:00,0.519,0.789,0.492,0.982,0.714,0.317,0.559,0.522,�k�k��,2.3,��
2024/05/04,03:10,0.518,0.787,0.492,0.983,0.711,0.318,0.558,0.522,�k,2.5,��
2024/05/04,03:20,0.519,0.787,0.493,0.985,0.711,0.318,0.557,0.523,�k�k��,2.6,��
2024/05/04,03:30,0.519,0.788,0.491,0.983,0.712,0.318,0.557,0.520,�k,2.9,��
2024/05/04,03:40,0.517,0.789,0.492,0.981,0.712,0.317,0.557,0.521,�k�k��,2.3,��
2024/05/04,03:50,0.517,0.788,0.493,0.984,0.712,0.318,0.558,0.520,�k�k��,2.5,��
2024/05/04,04:00,0.519,0.788,0.493,0.982,0.710,0.317,0.559,0.520,�k�k��,2.0,��
2024/05/04,04:10,0.516,0.789,0.491,0.982,0.713,0.316,0.557,0.521,�k��,1.7,��
2024/05/04,04:20,0.517,0.788,0.492,0.981,0.711,0.319,0.558,0.522,�k��,2.0,��
2024/05/04,04:30,0.518,0.787,0.492,0.983,0.712,0.318,0.558,0.522,�k�k��,1.1,��
2024/05/04,04:40,0.517,0.788,0.492,0.984,0.712,0.317,0.559,0.521,�k�k��,1.2,��
2024/05/04,04:50,0.519,0.788,0.491,0.983,0.713,0.317,0.558,0.521,�k�k��,0.8,��
2024/05/04,05:00,0.518,0.790,0.491,0.982,0.710,0.319,0.559,0.521,-,CALM,��
2024/05/04,05:10,0.519,0.787,0.492,0.981,0.712,0.317,0.558,0.521,-,CALM,��
2024/05/04,05:20,0.518,0.790,0.492,0.982,0.710,0.318,0.559,0.520,���쓌,0.8,��
2024/05/04,05:30,0.519,0.788,0.492,0.983,0.711,0.317,0.558,0.521,��,0.8,��
2024/05/04,05:40,0.518,0.789,0.492,0.982,0.712,0.317,0.559,0.521,���쓌,0.6,��
2024/05/04,05:50,0.517,0.788,0.491,0.983,0.710,0.319,0.560,0.522,�쓌,0.9,��
2024/05/04,06:00,0.520,0.788,0.492,0.982,0.711,0.317,0.559,0.521,��쓌,1.4,��
2024/05/04,06:10,0.518,0.790,0.492,0.984,0.712,0.318,0.559,0.521,��쐼,1.5,��
2024/05/04,06:20,0.519,0.791,0.493,0.983,0.712,0.318,0.558,0.521,��쐼,2.3,��
2024/05/04,06:30,0.519,0.789,0.494,0.981,0.709,0.318,0.559,0.523,��쐼,2.8,��
2024/05/04,06:40,0.520,0.787,0.493,0.985,0.712,0.317,0.560,0.521,��,2.2,��
2024/05/04,06:50,0.519,0.790,0.494,0.982,0.712,0.318,0.560,0.521,��,2.3,��
2024/05/04,07:00,0.519,0.789,0.492,0.982,0.712,0.317,0.560,0.522,��,2.0,��
2024/05/04,07:10,0.519,0.790,0.492,0.983,0.712,0.316,0.560,0.521,��쓌,1.5,��
2024/05/04,07:20,0.518,0.786,0.494,0.984,0.711,0.317,0.560,0.521,��쓌,2.2,��
2024/05/04,07:30,0.517,0.787,0.493,0.984,0.711,0.317,0.560,0.522,��쓌,2.3,��
2024/05/04,07:40,0.519,0.786,0.494,0.984,0.712,0.317,0.560,0.521,��쓌,2.5,��
2024/05/04,07:50,0.518,0.786,0.493,0.982,0.714,0.317,0.561,0.523,��쓌,2.9,��
2024/05/04,08:00,0.518,0.787,0.492,0.984,0.711,0.317,0.560,0.523,��쓌,3.3,��
2024/05/04,08:10,0.518,0.787,0.494,0.984,0.712,0.316,0.559,0.522,��,3.5,��
2024/05/04,08:20,0.517,0.788,0.492,0.985,0.712,0.317,0.561,0.522,��쓌,4.4,��
2024/05/04,08:30,0.517,0.788,0.492,0.984,0.712,0.317,0.560,0.521,��쓌,4.3,��
2024/05/04,08:40,0.519,0.788,0.493,0.985,0.712,0.317,0.560,0.520,��쓌,3.9,��
2024/05/04,08:50,0.517,0.788,0.495,0.984,0.712,0.316,0.559,0.520,��,4.0,��
2024/05/04,09:00,0.518,0.787,0.494,0.984,0.712,0.318,0.559,0.521,��,4.0,��
2024/05/04,09:10,0.518,0.789,0.492,0.986,0.712,0.318,0.558,0.519,��쓌,4.0,��
2024/05/04,09:20,0.518,0.789,0.492,0.985,0.712,0.316,0.558,0.520,��,4.7,��
2024/05/04,09:30,0.518,0.787,0.493,0.986,0.710,0.317,0.558,0.520,��쓌,4.7,��
2024/05/04,09:40,0.518,0.789,0.492,0.986,0.710,0.316,0.558,0.521,��,4.2,��
2024/05/04,09:50,0.519,0.788,0.492,0.985,0.711,0.317,0.558,0.520,��,4.4,��
2024/05/04,10:00,0.517,0.787,0.492,0.988,0.711,0.317,0.560,0.520,��,4.6,��
2024/05/04,10:10,0.519,0.789,0.493,0.984,0.712,0.317,0.559,0.519,��쓌,5.6,��
2024/05/04,10:20,0.519,0.790,0.494,0.985,0.712,0.318,0.560,0.520,��쓌,5.9,��
2024/05/04,10:30,0.520,0.789,0.492,0.986,0.713,0.318,0.559,0.521,��,5.6,��
2024/05/04,10:40,0.519,0.789,0.493,0.988,0.712,0.319,0.559,0.521,��쓌,5.7,��
2024/05/04,10:50,0.519,0.789,0.493,0.986,0.712,0.319,0.560,0.520,��,6.0,��
2024/05/04,11:00,0.520,0.791,0.494,0.987,0.713,0.319,0.560,0.520,��,6.6,��
2024/05/04,11:10,0.520,0.789,0.494,0.987,0.715,0.320,0.560,0.520,��,6.4,��
2024/05/04,11:20,0.520,0.788,0.493,0.983,0.713,0.320,0.561,0.519,��,6.9,��
2024/05/04,11:30,0.520,0.791,0.493,0.983,0.714,0.319,0.561,0.520,��쓌,8.9,��
2024/05/04,11:40,0.519,0.788,0.492,0.983,0.715,0.319,0.561,0.520,��쓌,9.6,��
2024/05/04,11:50,0.518,0.790,0.494,0.984,0.716,0.320,0.561,0.520,��쓌,10.2,��
2024/05/04,12:00,0.520,0.791,0.493,0.983,0.714,0.319,0.561,0.520,��쓌,9.7,��
2024/05/04,12:10,0.520,0.790,0.494,0.985,0.715,0.320,0.561,0.522,��쓌,10.3,��
2024/05/04,12:20,0.520,0.790,0.495,0.985,0.715,0.320,0.561,0.519,��,9.6,��
2024/05/04,12:30,0.520,0.791,0.494,0.984,0.716,0.320,0.559,0.520,��쓌,10.3,��
2024/05/04,12:40,0.519,0.791,0.495,0.986,0.714,0.319,0.559,0.522,��쓌,9.7,��
2024/05/04,12:50,0.521,0.791,0.493,0.984,0.716,0.319,0.560,0.521,��쓌,10.2,��
2024/05/04,13:00,0.522,0.791,0.494,0.985,0.715,0.320,0.561,0.522,��쓌,9.5,��
2024/05/04,13:10,0.522,0.792,0.495,0.983,0.717,0.319,0.561,0.522,��,9.3,��
2024/05/04,13:20,0.518,0.791,0.493,0.983,0.717,0.319,0.561,0.521,��,7.6,��
2024/05/04,13:30,0.522,0.791,0.495,0.985,0.715,0.320,0.562,0.522,��,7.4,��
2024/05/04,13:40,0.521,0.791,0.494,0.985,0.715,0.319,0.561,0.521,��,7.7,��
2024/05/04,13:50,0.519,0.790,0.495,0.987,0.715,0.320,0.560,0.521,��,8.4,��
2024/05/04,14:00,0.521,0.792,0.495,0.987,0.716,0.319,0.561,0.522,��,8.5,��
2024/05/04,14:10,0.520,0.792,0.494,0.987,0.717,0.321,0.561,0.522,��,7.7,��
2024/05/04,14:20,0.521,0.792,0.497,0.986,0.718,0.319,0.560,0.521,��,8.0,��
2024/05/04,14:30,0.521,0.791,0.494,0.986,0.718,0.320,0.561,0.523,��,7.6,��
2024/05/04,14:40,0.522,0.792,0.494,0.985,0.718,0.320,0.560,0.520,��,6.5,��
2024/05/04,14:50,0.520,0.792,0.495,0.987,0.717,0.320,0.560,0.523,��,6.1,��
2024/05/04,15:00,0.521,0.790,0.494,0.986,0.717,0.319,0.561,0.521,��,6.7,��
2024/05/04,15:10,0.520,0.791,0.494,0.985,0.718,0.319,0.561,0.521,��,6.9,��
2024/05/04,15:20,0.520,0.790,0.493,0.986,0.718,0.321,0.559,0.521,��,6.9,��
2024/05/04,15:30,0.521,0.790,0.496,0.988,0.716,0.320,0.559,0.523,��,6.6,��
2024/05/04,15:40,0.522,0.790,0.495,0.988,0.719,0.320,0.561,0.521,��쓌,7.2,��
2024/05/04,15:50,0.520,0.791,0.497,0.986,0.716,0.319,0.560,0.522,��,6.9,��
2024/05/04,16:00,0.520,0.791,0.495,0.985,0.715,0.319,0.560,0.521,��,6.8,��
2024/05/04,16:10,0.520,0.790,0.496,0.989,0.716,0.319,0.558,0.521,��,5.8,��
2024/05/04,16:20,0.520,0.789,0.495,0.987,0.714,0.320,0.560,0.520,��,6.1,��
2024/05/04,16:30,0.521,0.790,0.497,0.986,0.716,0.319,0.558,0.522,��,5.2,��
2024/05/04,16:40,0.521,0.791,0.495,0.988,0.715,0.319,0.559,0.520,��,5.4,��
2024/05/04,16:50,0.519,0.790,0.496,0.989,0.717,0.319,0.558,0.521,��,5.1,��
2024/05/04,17:00,0.519,0.792,0.494,0.989,0.717,0.321,0.559,0.521,��,4.9,��
2024/05/04,17:10,0.521,0.790,0.495,0.987,0.717,0.320,0.559,0.521,��,4.1,��
2024/05/04,17:20,0.521,0.793,0.496,0.988,0.717,0.319,0.557,0.520,��,3.5,��
2024/05/04,17:30,0.521,0.792,0.495,0.987,0.716,0.320,0.558,0.520,��,3.5,��
2024/05/04,17:40,0.519,0.793,0.495,0.988,0.717,0.320,0.558,0.523,��,4.8,��
2024/05/04,17:50,0.519,0.791,0.495,0.985,0.719,0.321,0.558,0.523,��,3.9,��
2024/05/04,18:00,0.518,0.792,0.496,0.986,0.719,0.320,0.558,0.524,��,3.8,��
2024/05/04,18:10,0.518,0.793,0.495,0.987,0.717,0.320,0.558,0.522,��쐼,2.8,��
2024/05/04,18:20,0.519,0.791,0.493,0.987,0.718,0.321,0.557,0.523,��쐼,2.0,��
2024/05/04,18:30,0.519,0.794,0.496,0.988,0.718,0.320,0.559,0.523,���쐼,1.4,��
2024/05/04,18:40,0.522,0.794,0.495,0.988,0.718,0.321,0.558,0.523,���k��,1.4,��
2024/05/04,18:50,0.521,0.791,0.495,0.986,0.716,0.320,0.559,0.522,���k��,1.7,��
2024/05/04,19:00,0.521,0.794,0.495,0.989,0.717,0.320,0.559,0.522,�k��,1.7,��
2024/05/04,19:10,0.521,0.791,0.496,0.987,0.718,0.320,0.559,0.523,�k��,1.5,��
2024/05/04,19:20,0.522,0.792,0.497,0.989,0.718,0.321,0.559,0.523,�k��,2.0,��
2024/05/04,19:30,0.522,0.793,0.497,0.988,0.718,0.321,0.561,0.523,�k�k��,2.3,��
2024/05/04,19:40,0.522,0.795,0.495,0.988,0.719,0.319,0.560,0.524,�k�k��,3.5,��
2024/05/04,19:50,0.520,0.792,0.495,0.989,0.717,0.319,0.561,0.523,�k,3.1,��
2024/05/04,20:00,0.522,0.793,0.496,0.988,0.720,0.321,0.561,0.523,�k�k��,3.0,��
2024/05/04,20:10,0.523,0.792,0.498,0.990,0.720,0.322,0.562,0.524,�k�k��,2.9,��
2024/05/04,20:20,0.522,0.795,0.498,0.990,0.719,0.322,0.562,0.523,�k��,4.6,��
2024/05/04,20:30,0.521,0.792,0.497,0.989,0.718,0.321,0.562,0.522,�k��,4.0,��
2024/05/04,20:40,0.521,0.794,0.496,0.990,0.719,0.321,0.560,0.523,�k��,3.4,��
2024/05/04,20:50,0.522,0.793,0.497,0.989,0.719,0.321,0.562,0.523,�k��,3.3,��
2024/05/04,21:00,0.523,0.794,0.496,0.991,0.718,0.322,0.561,0.524,�k��,3.8,��
2024/05/04,21:10,0.521,0.793,0.495,0.986,0.717,0.320,0.561,0.522,�k��,3.3,��
2024/05/04,21:20,0.522,0.793,0.495,0.990,0.718,0.321,0.562,0.523,�k��,3.9,��
2024/05/04,21:30,0.522,0.791,0.496,0.990,0.719,0.320,0.562,0.522,�k��,3.2,��
2024/05/04,21:40,0.520,0.794,0.496,0.988,0.716,0.322,0.560,0.522,��,1.7,��
2024/05/04,21:50,0.521,0.793,0.497,0.989,0.718,0.321,0.562,0.523,�쐼,1.2,��
2024/05/04,22:00,0.523,0.792,0.497,0.990,0.717,0.321,0.562,0.524,��쐼,1.1,��
2024/05/04,22:10,0.523,0.793,0.496,0.987,0.717,0.321,0.562,0.524,��,0.8,��
2024/05/04,22:20,0.521,0.792,0.496,0.990,0.717,0.321,0.562,0.523,��,1.2,��
2024/05/04,22:30,0.522,0.793,0.495,0.989,0.716,0.321,0.559,0.523,��쓌,1.2,��
2024/05/04,22:40,0.522,0.793,0.497,0.989,0.717,0.321,0.563,0.525,��쓌,1.5,��
2024/05/04,22:50,0.522,0.793,0.493,0.990,0.718,0.320,0.562,0.523,��,1.7,��
2024/05/04,23:00,0.522,0.794,0.496,0.990,0.718,0.319,0.563,0.523,��쓌,0.6,��
2024/05/04,23:10,0.522,0.793,0.494,0.987,0.717,0.319,0.560,0.524,��쓌,0.9,��
2024/05/04,23:20,0.521,0.793,0.494,0.987,0.716,0.320,0.560,0.522,��쓌,1.2,��
2024/05/04,23:30,0.522,0.792,0.496,0.987,0.716,0.319,0.560,0.522,�쓌,1.2,��
2024/05/04,23:40,0.519,0.793,0.497,0.989,0.718,0.320,0.562,0.524,���쓌,1.7,��
2024/05/04,23:50,0.523,0.793,0.494,0.989,0.718,0.320,0.562,0.522,���쓌,2.3,��
